This is the latest recevied weather packets stored in our database for station/object K4DNM. If no packets are shown the sender has not sent any weather packets the latest 1 day(s).
| Time | Temp. | Humidity | Pressure | Rain* | Wind** | Luminosity | Snow |
|---|---|---|---|---|---|---|---|
| 1778007832 | 26.67° C | 46% | 1014.8 hPa | 0 mm | 1.79 m/s, 206° | 684 W/m² | - |
| 1778007531 | 26.67° C | 46% | 1014.9 hPa | 0 mm | 1.34 m/s, 162° | 695 W/m² | - |
| 1778007292 | 26.67° C | 47% | 1014.9 hPa | 0 mm | 1.34 m/s, 80° | 545 W/m² | - |
| 1778006931 | 26.67° C | 45% | 1014.9 hPa | 0 mm | 1.79 m/s, 71° | 801 W/m² | - |
| 1778006635 | 26.11° C | 46% | 1015 hPa | 0 mm | 1.79 m/s, 193° | 876 W/m² | - |
| 1778006329 | 26.11° C | 47% | 1015.2 hPa | 0 mm | 2.24 m/s, 194° | 700 W/m² | - |
| 1778006026 | 26.11° C | 46% | 1015.3 hPa | 0 mm | 1.79 m/s, 212° | 339 W/m² | - |
| 1778005726 | 26.67° C | 46% | 1015.2 hPa | 0 mm | 0.89 m/s, 157° | 187 W/m² | - |
| 1778005423 | 26.67° C | 44% | 1015.2 hPa | 0 mm | 1.34 m/s, 13° | 361 W/m² | - |
| 1778005126 | 26.67° C | 49% | 1015.2 hPa | 0 mm | 1.79 m/s, 242° | 975 W/m² | - |
| 1778004824 | 26.11° C | 46% | 1015.3 hPa | 0 mm | 2.24 m/s, 209° | 897 W/m² | - |
| 1778004584 | 26.11° C | 46% | 1015.3 hPa | 0 mm | 2.24 m/s, 144° | 918 W/m² | - |
| 1778004224 | 26.11° C | 46% | 1015.3 hPa | 0 mm | 1.79 m/s, 95° | 958 W/m² | - |
| 1778003986 | 26.11° C | 46% | 1015.3 hPa | 0 mm | 1.79 m/s, 158° | 992 W/m² | - |
| 1778003623 | 26.11° C | 48% | 1015.4 hPa | 0 mm | 1.79 m/s, 174° | 964 W/m² | - |
| 1778003326 | 26.11° C | 50% | 1015.3 hPa | 0 mm | 1.34 m/s, 129° | 968 W/m² | - |
| 1778003023 | 26.11° C | 47% | 1015.4 hPa | 0 mm | 1.34 m/s, 173° | 731 W/m² | - |
| 1778002723 | 26.11° C | 46% | 1015.4 hPa | 0 mm | 1.34 m/s, 215° | 972 W/m² | - |
| 1778002421 | 25.56° C | 50% | 1015.4 hPa | 0 mm | 1.79 m/s, 158° | 1013 W/m² | - |
| 1778002122 | 25.56° C | 49% | 1015.5 hPa | 0 mm | 1.79 m/s, 175° | 415 W/m² | - |
| 1778001821 | 26.11° C | 49% | 1015.5 hPa | 0 mm | 1.34 m/s, 202° | 947 W/m² | - |
| 1778001523 | 25.56° C | 51% | 1015.4 hPa | 0 mm | 1.34 m/s, 0° | 1006 W/m² | - |
| 1778001221 | 25.56° C | 49% | 1015.5 hPa | 0 mm | 1.34 m/s, 161° | 964 W/m² | - |
| 1778000922 | 25.56° C | 51% | 1015.5 hPa | 0 mm | 1.79 m/s, 161° | 979 W/m² | - |
| 1778000622 | 25.56° C | 52% | 1015.6 hPa | 0 mm | 1.79 m/s, 195° | 976 W/m² | - |
* Rain latest hour (hover to see other rain measurements)
** Current wind speed in m/s (hover to see current wind gust speed)